Flag Weather past 2 weeks in Bogota, Colombia

Now
55 °F

Scattered showers. Passing clouds.


Feels Like: 55 °F
Forecast: 53 / 68 °F
Wind: 5 mph from Northwest

Location: Bogota / Eldorado

Current Time: Nov 26, 2014 at 9:06:18 PM

Latest Report: Nov 26, 2014 at 8:00 PM


Visibility: N/A

Pressure: 30.30 "Hg

Humidity: 82%

Dew point: 50 °F

Location of BogotaLocation

Historic Weather in Bogota — Graph

°F

Bogota temperature yesterday

Maximum temperature yesterday: 64 °F (at 12:00 PM)
Minimum temperature yesterday: 48 °F (at 3:00 AM)
Average temperature yesterday: 56 °F

Past Weeks' High & Low Weather Summary

 TemperatureHumidityPressure
High82 °F (Nov 16, 8:00 AM)100% (Nov 15, 3:00 AM)30.76 "Hg (Nov 15, 3:00 AM)
Low41 °F (Nov 15, 6:00 AM)43% (Nov 18, 10:00 AM)29.93 "Hg (Nov 16, 8:00 AM)
Average57 °F79%30.30 "Hg
* Reported Nov 11 8:00 PM — Nov 26 8:00 PM, Bogota, Weather by CustomWeather, © 2014

Note: Actual official high and low records may vary slightly from our data, if they occured in-between our weather recording intervals... More about our weather records

Advertising

Bogota weather history for previous 24 hours

 ConditionsComfort  
Time TempWeatherWind HumidityBarometerVisibility
8:00 PM
Nov 26
55 °FScattered showers. Passing clouds.5 mph82%30.30 "HgN/A
7:00 PM55 °FPassing clouds.10 mph88%30.27 "HgN/A
6:00 PM57 °FThunderstorms. Passing clouds.9 mph88%30.26 "HgN/A
5:00 PM57 °FThunderstorms. Scattered clouds.12 mph88%30.23 "Hg6 mi
4:00 PM61 °FScattered showers. Scattered clouds.14 mph77%30.21 "Hg6 mi
3:00 PM64 °FScattered clouds.9 mph68%30.22 "HgN/A
2:00 PM59 °FThunderstorms. Partly sunny.9 mph82%30.25 "HgN/A
1:00 PM63 °FThunderstorms. Scattered clouds.14 mph73%30.27 "HgN/A
12:00 PM66 °FScattered clouds.6 mph52%30.29 "HgN/A
11:00 AM68 °FScattered clouds.5 mph49%30.32 "HgN/A
10:00 AM64 °FPassing clouds.5 mph56%30.34 "HgN/A
9:00 AM59 °FPassing clouds.6 mph68%30.35 "HgN/A
8:00 AM54 °FScattered clouds.3 mph94%30.34 "HgN/A
7:00 AM46 °FScattered clouds.5 mph100%30.31 "HgN/A
6:00 AM46 °FFog.3 mph93%30.29 "Hg4 mi
5:30 AM45 °FPassing clouds.3 mph100%30.28 "HgN/A
5:00 AM46 °FPassing clouds.3 mph100%30.27 "HgN/A
4:00 AM46 °FPassing clouds.3 mph93%30.26 "HgN/A
3:00 AM45 °FPassing clouds.3 mph93%30.25 "HgN/A
2:00 AM48 °FPassing clouds.2 mph94%30.27 "HgN/A
1:00 AM45 °FPassing clouds.2 mph93%30.28 "HgN/A
12:00 AM48 °FPassing clouds.2 mph94%30.30 "HgN/A
11:00 PM
Nov 25
48 °FPassing clouds.5 mph87%30.33 "HgN/A
10:00 PM52 °FPassing clouds.5 mph82%30.33 "HgN/A
9:00 PM54 °FPassing clouds.2 mph82%30.32 "HgN/A
Weather by CustomWeather, © 2014

See weather overviewHow to use our weather pages